Regional Weather Roundup
Issued by NWS

Home | Current Version | Previous Version | Graphics & Text | Print | Product List | Glossary On
Versions: 1 2 3 4 5 6 7 8 9 10 11 12 13 14 15 16 17 18 19 20 21 22 23 24 25 26 27 28 29 30 31 32 33 34 35 36 37 38 39 40 41 42 43 44 45 46 47 48 49 50
460
ASUS43 KLMK 261102
RWRKY
KENTUCKY REGIONAL WEATHER ROUNDUP
NATIONAL WEATHER SERVICE LOUISVILLE KY
700 AM EDT FRI AUG 26 2016

NOTE "FAIR" INDICATES FEW OR NO CLOUDS BELOW 12,000 FEET
WITH NO SIGNIFICANT WEATHER AND/OR OBSTRUCTIONS TO VISIBILITY.

KYZ001>023-026-027-061>063-070>075-261200-
WESTERN AND SOUTH CENTRAL KENTUCKY

CITY           SKY/WX    TMP DP  RH WIND       PRES   REMARKS
PADUCAH        FAIR      75  72  90 S5        30.08R FOG
HENDERSON      FAIR      72  66  83 CALM      30.08R
OWENSBORO      FAIR      74  74 100 SE3       30.10R
HOPKINSVILLE   FAIR      74  74 100 CALM      30.10R FOG
BOWLING GREEN  FAIR      73  72  96 CALM      30.12R FOG
GLASGOW        FAIR      72  72 100 CALM      30.13R FOG
$$

KYZ024-025-028>034-038-045-046-053-261200-
NORTH CENTRAL KENTUCKY

CITY           SKY/WX    TMP DP  RH WIND       PRES   REMARKS
LOUISVILLE/SDF MOCLDY    74  71  91 SE5       30.11R
LOUISVILLE/LOU FAIR      74  70  87 CALM      30.11S
FORT KNOX      MOCLDY    69  69 100 CALM      30.11R FOG
$$

KYZ035>037-039>044-047>052-055>060-089>105-261200-
NORTHEAST KENTUCKY

CITY           SKY/WX    TMP DP  RH WIND       PRES   REMARKS
LEXINGTON      FAIR      71  68  90 CALM      30.15R
COVINGTON      FAIR      71  71 100 CALM      30.12R
FRANKFORT      FAIR      70  67  90 CALM      30.13R
$$

KYZ054-064>069-076>088-106>120-261200-
SOUTHEAST KENTUCKY

CITY           SKY/WX    TMP DP  RH WIND       PRES   REMARKS
JACKSON        FAIR      72  70  93 CALM      30.17R FOG
LONDON         FAIR      70  67  90 CALM      30.16R
SOMERSET       FAIR      70  70 100 CALM      30.16R FOG
MIDDLESBORO    CLOUDY    70  70 100 CALM      30.18R FOG
MONTICELLO     FOG      N/A N/A N/A W10       30.17R VSB 1/2
$$





USA.gov is the U.S. government's official web portal to all federal, state and local government web resources and services.